Regional Weather Roundup
Issued by NWS

Home | Current Version | Previous Version | Text Only | Print | Product List | Glossary Off
Versions: 1 2 3 4 5 6 7 8 9 10 11 12 13 14 15 16 17 18 19 20 21 22 23 24 25 26 27 28 29 30 31 32 33 34 35 36 37 38 39 40 41 42 43 44 45 46 47 48 49 50

000
ASUS44 KMEG 221310
RWRTN
TENNESSEE HOURLY STATE WEATHER ROUNDUP
NATIONAL WEATHER SERVICE MEMPHIS TN
800 AM CDT WED OCT 22 2014

TNZ002-004-019-021-049-052-054-088>092-221400-
WEST TENNESSEE

CITY           SKY/WX    TMP DP  RH WIND       PRES   REMARKS
MEMPHIS INTL   CLEAR     53  44  71 E5        30.22R
NWS MEMPHIS      N/A     50 N/A N/A MISG        N/A
JACKSON        CLEAR     44  41  89 CALM      30.24R
DYERSBURG      CLEAR     46  36  66 NE5       30.27R
UNION CITY     CLEAR     41  41 100 NE3       30.25R
PARIS          CLEAR     41  39  93 N5        30.25R
LEXINGTON      CLEAR     43  41  93 N3        30.21R
SAVANNAH       CLEAR     39  39 100 CALM      30.21S
$$

TNZ008-025-027-028-033-062-065-066-221400-
NORTH MIDDLE TENNESSEE

CITY           SKY/WX    TMP DP  RH WIND       PRES   REMARKS
NASHVILLE      SUNNY     48  43  82 N7        30.24R
CLARKSVILLE    CLEAR     45  42  89 N5        30.26R
SMYRNA         SUNNY     46  42  86 N8        30.24R
COOKEVILLE     SUNNY     43  41  93 N3        30.21R
CROSSVILLE     PTSUNNY   43  39  86 NE6       30.20R
$$

TNZ061-075-076-078-094-096-097-221400-
SOUTH MIDDLE TENNESSEE

CITY           SKY/WX    TMP DP  RH WIND       PRES   REMARKS
FAYETTEVILLE   SUNNY     45  39  81 NE6       30.18S
TULLAHOMA      SUNNY     45  41  87 NE6       30.20R
WINCHESTER     SUNNY     39  37  93 CALM      30.19R
MCMINNVILLE    CLOUDY    41  41 100 CALM      30.20R VSB 1/4
COLUMBIA       SUNNY     43  43 100 CALM      30.20R
SHELBYVILLE    SUNNY     45  43  93 CALM      30.21R
$$

TNZ017-018-042-046-047-221400-
NORTHEAST TENNESSEE

CITY           SKY/WX    TMP DP  RH WIND       PRES   REMARKS
TRI CITIES     PTSUNNY   47  38  71 NW5       30.18R
ELIZABETHTON   CLOUDY    45  36  70 SW6       30.17R
$$

TNZ012-013-036-069-073-074-221400-
CENTRAL EAST TENNESSEE

CITY           SKY/WX    TMP DP  RH WIND       PRES   REMARKS
KNOXVILLE      MOSUNNY   46  42  86 NE6       30.19R
OAK RIDGE      SUNNY     48  41  76 VRB3      30.21R
GATLINBURG     SUNNY     39  37  93 CALM      30.19R
MORRISTOWN     PTSUNNY   46  41  81 CALM      30.20R
$$

TNZ083-085-099-221400-
SOUTHEAST TENNESSEE

CITY           SKY/WX    TMP DP  RH WIND       PRES   REMARKS
CHATTANOOGA    SUNNY     50  41  71 N12       30.18R
$$

SKY/WX REPORTED AS FAIR MEANS FEW OR NO CLOUDS BELOW
12 THOUSAND FEET.




USA.gov is the U.S. government's official web portal to all federal, state and local government web resources and services.